Waarnemingen

Advertentie
Mijn weer
Reims-Prunay, Frankrijk (7072): temperatuur & dauwpunt: 22.04.2017 02:00:00 - 28.04.2017 02:00:00 (CEST)Reims-Prunay, Frankrijk (7072): temperatuur 5cm: 22.04.2017 02:00:00 - 28.04.2017 02:00:00 (CEST)Reims-Prunay, Frankrijk (7072): temperatuur -20cm & temperatuur -100cm: 22.04.2017 02:00:00 - 28.04.2017 02:00:00 (CEST)Reims-Prunay, Frankrijk (7072): windsnelheid & windstoten: 22.04.2017 02:00:00 - 28.04.2017 02:00:00 (CEST)Reims-Prunay, Frankrijk (7072): windrichting: 22.04.2017 02:00:00 - 28.04.2017 02:00:00 (CEST)Reims-Prunay, Frankrijk (7072): luchtdruk: 22.04.2017 02:00:00 - 28.04.2017 02:00:00 (CEST)Reims-Prunay, Frankrijk (7072): zicht: 22.04.2017 02:00:00 - 28.04.2017 02:00:00 (CEST)Reims-Prunay, Frankrijk (7072): Zonneschijnduur: 22.04.2017 02:00:00 - 28.04.2017 02:00:00 (CEST)Reims-Prunay, Frankrijk (7072): neerslag: 22.04.2017 02:00:00 - 28.04.2017 02:00:00 (CEST)
Datum & Tijd tt [°C] td [°C] tt 5cm [°C] tt -20cm [°C] tt -100cm [°C] ff [km/u] ff [kn] fx [km/u] fx [kn] dd ppp [hPa] vv [km] sd [min] rr [mm]
28.04.2017 02:00:00 0,3 -1,6 -5,0 10,6 10,2 2 1 7 4 ZW 1017,6 20 0 0,0
28.04.2017 01:00:00 -0,4 -2,5 -5,6 10,7 10,1 0 0 4 2 N 1017,8 20 0 0,0
28.04.2017 00:00:00 0,9 -1,7 -4,6 10,9 10,2 0 0 10 5 N 1017,6 20 0 0,0
27.04.2017 23:00:00 1,8 -1,5 -3,9 11,0 10,2 4 2 11 6 NNW 1017,7 20 0 0,0
27.04.2017 22:00:00 2,4 -0,7 -0,9 11,1 10,2 9 5 16 9 NNW 1017,6 20 0 0,0
27.04.2017 21:00:00 5,7 -0,2 3,8 11,1 10,1 13 7 24 13 NNW 1017,0 20 9 0,0
27.04.2017 20:00:00 8,6 -0,7 7,8 11,1 10,1 19 11 29 16 N 1016,7 20 42 0,0
27.04.2017 19:00:00 8,6 -0,2 8,1 11,0 10,2 13 7 35 19 NNW 1016,6 20 10 0,0
27.04.2017 18:00:00 10,6 -0,9 10,5 10,8 10,1 19 10 34 19 NW 1016,4 20 38 0,0
27.04.2017 17:00:00 11,0 -0,8 11,5 10,6 10,2 23 13 36 19 NNW 1016,6 20 33 0,0
27.04.2017 16:00:00 11,1 0,5 16,1 10,3 10,1 24 13 38 20 NNW 1016,9 20 60 0,0
27.04.2017 15:00:00 11,3 -0,5 12,9 10,0 10,1 16 9 41 22 N 1017,1 20 44 0,0
27.04.2017 14:00:00 11,3 -0,8 10,7 9,8 10,2 18 10 31 17 N 1017,3 20 43 0,0
27.04.2017 13:00:00 9,6 -1,5 10,8 9,6 10,1 19 10 34 19 N 1017,9 20 30 0,0
27.04.2017 12:00:00 9,4 1,5 10,1 9,5 10,1 17 9 28 15 N 1018,3 20 21 0,0
27.04.2017 11:00:00 8,7 1,8 10,9 9,5 10,1 16 9 27 15 N 1018,4 20 53 0,0
27.04.2017 10:00:00 6,8 2,9 4,9 9,6 10,2 10 6 19 10 WNW 1018,4 16 49 0,0
27.04.2017 09:00:00 3,6 1,3 2,8 9,7 10,2 11 6 20 11 NW 1018,5 14 44 0,0
27.04.2017 08:00:00 2,3 0,2 0,2 9,8 10,1 10 6 16 9 WNW 1018,2 18 53 0,0
27.04.2017 07:00:00 1,1 -0,5 -0,5 10,0 10,1 8 4 18 10 WNW 1017,9 16 0 0,0
27.04.2017 06:00:00 1,0 -0,5 -0,5 10,1 10,2 9 5 14 7 W 1017,4 15 0 0,0
27.04.2017 05:00:00 1,2 -0,3 -0,4 10,3 10,1 10 5 15 8 W 1017,2 16 0 0,0
27.04.2017 04:00:00 1,3 0,1 -0,5 10,4 10,2 9 5 14 7 W 1017,0 15 0 0,0
27.04.2017 03:00:00 2,4 1,2 -2,1 10,6 10,2 7 4 16 9 NW 1016,8 19 0 0,0
27.04.2017 02:00:00 2,6 1,0 0,3 10,7 10,1 9 5 14 7 NNW 1016,7 20 0 0,0
27.04.2017 01:00:00 3,7 1,1 -2,7 10,9 10,1 6 4 13 7 WNW 1016,8 20 0 0,0
27.04.2017 00:00:00 2,2 -0,1 -2,1 11,0 10,2 5 3 9 5 N 1016,7 20 0 0,0
26.04.2017 23:00:00 4,3 1,7 2,0 11,1 10,1 5 3 8 5 NNW 1016,2 20 0 0,0
26.04.2017 22:00:00 4,6 1,8 2,2 11,1 10,1 5 3 10 5 N 1016,0 20 0 0,0
26.04.2017 21:00:00 5,1 0,8 2,6 11,2 10,1 7 4 30 16 NO 1015,2 20 0 0,0
26.04.2017 20:00:00 7,2 1,7 6,6 11,1 10,1 8 5 34 18 NNW 1014,4 20 16 0,0
26.04.2017 19:00:00 8,0 0,9 9,2 11,0 10,1 23 13 35 19 N 1013,8 20 50 0,0
26.04.2017 18:00:00 10,7 0,4 8,4 10,9 10,1 14 8 26 14 NW 1013,3 20 40 0,0
26.04.2017 17:00:00 8,7 0,2 8,3 10,7 10,1 12 6 32 18 WNW 1013,5 20 10 0,0
26.04.2017 16:00:00 11,4 -1,7 12,9 10,4 10,1 8 4 21 12 NNW 1013,1 20 32 0,0
26.04.2017 15:00:00 10,3 -1,1 12,8 10,1 10,1 9 5 31 17 NNW 1013,5 20 32 0,0
26.04.2017 14:00:00 9,8 -0,4 13,2 10,0 10,1 17 9 29 15 NNW 1013,6 20 38 0,0
26.04.2017 13:00:00 9,7 -2,0 11,7 9,8 10,1 16 9 28 15 N 1013,6 20 45 0,0
26.04.2017 12:00:00 8,4 0,1 9,1 9,7 10,1 14 7 21 12 N 1013,8 19 19 0,0
26.04.2017 11:00:00 7,9 1,5 10,1 9,7 10,1 8 5 20 11 N 1013,6 20 47 0,0
26.04.2017 10:00:00 6,4 0,3 4,5 9,8 10,1 8 4 19 10 NNW 1013,6 20 42 0,0
26.04.2017 09:00:00 3,9 -1,3 4,6 9,9 10,1 9 5 16 9 NW 1013,6 20 52 0,0
26.04.2017 08:00:00 2,7 -2,2 -2,3 10,1 10,2 6 3 16 9 W 1013,4 20 54 0,0
26.04.2017 07:00:00 0,7 -2,7 -3,1 10,2 10,1 5 3 11 6 WZW 1012,8 20 0 0,0
26.04.2017 06:00:00 1,3 -2,5 -0,5 10,3 10,1 8 4 21 12 NNW 1012,5 20 0 0,0
26.04.2017 05:00:00 2,1 -2,1 -1,3 10,4 10,1 4 2 13 7 NW 1012,4 20 0 0,0
26.04.2017 04:00:00 2,8 -1,9 -0,7 10,6 10,1 4 2 16 8 NNW 1012,5 20 0 0,0
26.04.2017 03:00:00 3,2 -0,6 1,5 10,7 10,1 4 2 13 7 NNW 1012,5 20 0 0,0
26.04.2017 02:00:00 4,1 -0,9 -0,9 10,9 10,1 9 5 13 7 W 1012,3 20 0 0,0
26.04.2017 01:00:00 2,9 -1,1 -0,7 11,0 10,1 4 2 16 8 W 1012,1 20 0 0,0
26.04.2017 00:00:00 4,7 -0,7 3,1 11,1 10,1 11 6 17 9 NNO 1011,7 20 0 0,0
25.04.2017 23:00:00 5,9 -0,8 4,5 11,2 10,1 11 6 24 13 NNO 1011,3 20 0 0,0
25.04.2017 22:00:00 7,0 -0,7 6,0 11,3 10,1 17 9 27 15 N 1011,0 20 0 0,0
25.04.2017 21:00:00 7,6 -1,9 6,6 11,2 10,1 15 8 22 12 N 1010,5 20 0 0,0
25.04.2017 20:00:00 8,4 -1,4 7,7 11,2 10,1 10 5 18 10 N 1010,4 20 0 0,0
25.04.2017 19:00:00 9,3 -1,5 9,6 11,1 10,1 13 7 23 12 N 1010,4 20 0 0,0
25.04.2017 18:00:00 10,0 -2,3 12,7 11,0 10,1 13 7 25 14 N 1010,8 20 39 0,0
25.04.2017 17:00:00 10,1 -2,6 13,0 10,9 10,1 16 9 30 16 N 1011,3 20 41 0,0
25.04.2017 16:00:00 9,7 -1,4 12,3 10,8 10,1 16 9 31 17 N 1011,7 20 4 0,0
25.04.2017 15:00:00 9,2 -2,1 11,9 10,7 10,1 12 7 27 15 NNW 1012,0 20 0 0,0
25.04.2017 14:00:00 8,4 -2,9 9,5 10,7 10,1 11 6 24 13 N 1012,5 20 0 0,0
25.04.2017 13:00:00 7,6 -1,6 8,9 10,7 10,1 15 8 29 15 NNW 1012,6 20 0 0,0
25.04.2017 12:00:00 7,4 -1,1 8,7 10,7 10,1 18 10 48 26 N 1012,6 20 2 0,0
25.04.2017 11:00:00 6,8 -0,2 7,0 10,7 10,1 18 10 27 15 N 1012,3 20 0 0,0
25.04.2017 10:00:00 6,3 1,6 5,7 10,8 10,1 17 9 27 15 NNW 1011,9 20 0 0,0
25.04.2017 09:00:00 5,5 2,0 4,5 10,9 10,1 12 6 29 16 NW 1012,1 20 0 0,0
25.04.2017 08:00:00 5,8 1,7 5,6 11,0 10,1 18 10 43 23 NNW 1011,7 20 0 0,0
25.04.2017 07:00:00 7,3 3,2 7,0 11,1 10,1 19 11 31 17 N 1010,7 20 0 0,0
25.04.2017 06:00:00 8,1 4,9 7,5 11,2 10,1 16 9 25 14 NNW 1009,9 20 0 0,0
25.04.2017 05:00:00 8,0 4,0 1,0 11,4 10,1 10 6 15 8 W 1009,6 20 0 0,0
25.04.2017 04:00:00 2,1 0,8 0,4 11,5 10,1 5 3 11 6 NNW 1009,7 20 0 0,0
25.04.2017 03:00:00 7,7 3,5 1,1 11,6 10,1 9 5 12 7 W 1009,7 20 0 0,0
25.04.2017 02:00:00 8,8 3,8 4,5 11,7 10,1 7 4 10 5 W 1010,3 20 0 0,0
25.04.2017 01:00:00 9,5 4,1 5,9 11,9 10,1 5 3 13 7 W 1010,7 20 0 0,0
25.04.2017 00:00:00 9,6 4,6 5,9 12,0 10,1 11 6 17 9 NW 1011,0 20 0 0,0
24.04.2017 23:00:00 7,0 3,6 3,3 12,2 10,1 8 5 14 7 NW 1011,3 20 0 0,0
24.04.2017 22:00:00 6,8 3,0 3,0 12,2 10,1 3 1 7 4 W 1011,4 20 0 0,0
24.04.2017 21:00:00 9,2 3,6 7,2 12,2 10,1 6 3 16 8 NNW 1011,4 20 5 0,0
24.04.2017 20:00:00 13,5 2,4 12,5 12,0 10,1 10 5 23 12 NNW 1011,6 20 23 0,0
24.04.2017 19:00:00 15,9 1,6 16,7 11,8 10,1 14 7 24 13 NW 1011,8 20 58 0,0
24.04.2017 18:00:00 16,9 2,1 20,4 11,6 10,1 7 4 19 10 NW 1012,2 20 60 0,0
24.04.2017 17:00:00 16,6 2,2 18,7 11,2 10,1 8 4 19 10 NW 1012,9 20 44 0,0
24.04.2017 16:00:00 16,3 1,6 22,1 10,8 10,1 6 4 17 9 N 1013,9 20 60 0,0
24.04.2017 15:00:00 15,6 1,3 20,9 10,5 10,1 9 5 22 12 W 1015,1 19 60 0,0
24.04.2017 14:00:00 14,8 0,6 21,5 10,2 10,1 10 5 20 11 WZW 1016,2 20 60 0,0
24.04.2017 13:00:00 13,9 1,2 19,6 9,9 10,1 5 3 19 10 W 1017,1 18 60 0,0
24.04.2017 12:00:00 13,3 1,0 19,4 9,8 10,1 4 2 11 6 NNW 1018,0 20 60 0,0
24.04.2017 11:00:00 11,8 1,1 15,3 9,7 10,1 3 1 8 4 OZO 1018,7 20 60 0,0
24.04.2017 10:00:00 9,0 0,7 11,8 9,8 10,1 4 2 9 5 ZO 1019,2 20 60 0,0
24.04.2017 09:00:00 7,0 0,0 5,0 9,9 10,1 4 2 8 4 OZO 1019,8 20 60 0,0
24.04.2017 08:00:00 2,3 -1,1 -2,6 10,1 10,1 0 0 3 1 N 1020,2 19 60 0,0
24.04.2017 07:00:00 -2,4 -3,5 -5,4 10,3 10,1 0 0 4 2 N 1020,4 20 1 0,0
24.04.2017 06:00:00 -2,2 -3,2 -5,4 10,5 10,1 0 0 6 3 N 1020,7 20 0 0,0
24.04.2017 05:00:00 -1,9 -3,0 -3,9 10,6 10,1 5 3 8 5 N 1021,3 20 0 0,0
24.04.2017 04:00:00 -1,6 -2,7 -3,9 10,8 10,1 5 3 7 4 NNW 1021,9 20 0 0,0
24.04.2017 03:00:00 -1,2 -2,8 -3,6 11,0 10,1 4 2 5 3 NNW 1022,5 20 0 0,0
24.04.2017 02:00:00 1,6 -2,0 -3,1 11,2 10,1 2 1 7 4 WZW 1022,9 20 0 0,0
24.04.2017 01:00:00 4,7 -1,1 -0,4 11,3 10,0 2 1 10 6 Z 1023,2 20 0 0,0
24.04.2017 00:00:00 5,0 -0,8 1,4 11,4 10,0 2 1 22 12 W 1023,7 20 0 0,0
23.04.2017 23:00:00 7,5 -0,2 2,3 11,6 10,1 16 9 24 13 NNO 1023,7 20 0 0,0
23.04.2017 22:00:00 5,0 0,6 1,7 11,6 10,1 10 6 14 8 NNO 1024,0 20 0 0,0
23.04.2017 21:00:00 6,6 1,7 2,9 11,7 10,1 7 4 13 7 N 1023,9 20 23 0,0
23.04.2017 20:00:00 11,5 1,7 12,2 11,6 10,1 9 5 17 9 N 1023,7 20 60 0,0
23.04.2017 19:00:00 13,2 0,6 17,3 11,4 10,1 11 6 22 12 N 1023,8 20 60 0,0
23.04.2017 18:00:00 13,3 -0,4 18,9 11,1 10,1 13 7 26 14 NNO 1023,9 20 60 0,0
23.04.2017 17:00:00 13,3 -0,4 14,8 10,9 10,1 11 6 27 15 NNO 1024,4 20 52 0,0
23.04.2017 16:00:00 13,0 0,4 20,0 10,5 10,0 9 5 24 13 NO 1025,0 19 60 0,0
23.04.2017 15:00:00 12,1 -0,1 14,7 10,3 10,0 10 6 26 14 NO 1025,7 20 52 0,0
23.04.2017 14:00:00 11,5 0,9 13,3 10,0 10,0 11 6 24 13 NNO 1026,3 20 33 0,0
23.04.2017 13:00:00 10,8 0,8 14,0 9,9 10,0 13 7 28 15 NNO 1027,0 20 38 0,0
23.04.2017 12:00:00 9,4 0,0 10,8 9,8 10,0 13 7 25 14 NNO 1027,6 20 35 0,0
23.04.2017 11:00:00 8,7 1,6 11,3 9,7 10,0 13 7 23 13 NNO 1027,7 19 40 0,0
23.04.2017 10:00:00 7,7 2,2 13,2 9,8 10,1 9 5 17 9 NNO 1027,9 20 60 0,0
23.04.2017 09:00:00 5,8 1,5 5,8 10,0 10,0 7 4 10 5 NNO 1027,9 20 60 0,0
23.04.2017 08:00:00 2,6 0,8 -1,6 10,1 10,0 8 4 16 9 W 1028,0 19 60 0,0
23.04.2017 07:00:00 -0,1 -1,0 -4,8 10,3 10,0 4 2 8 4 W 1027,8 18 0 0,0
23.04.2017 06:00:00 1,8 0,2 -3,2 10,5 10,1 4 2 10 5 NW 1027,2 20 0 0,0
23.04.2017 05:00:00 1,4 -1,2 -2,4 10,6 10,0 5 3 12 7 N 1027,0 20 0 0,0
23.04.2017 04:00:00 2,3 0,0 -1,5 10,7 10,1 7 4 11 6 WNW 1027,2 20 0 0,0
23.04.2017 03:00:00 3,1 0,2 -1,1 10,9 10,0 4 2 16 9 N 1027,4 20 0 0,0
23.04.2017 02:00:00 5,2 0,9 2,5 11,0 10,0 13 7 21 11 NNO 1027,6 20 0 0,0
23.04.2017 01:00:00 5,4 1,3 3,1 11,1 10,0 11 6 20 11 NNO 1027,6 20 0 0,0
23.04.2017 00:00:00 6,5 2,2 4,5 11,3 10,0 14 7 20 11 NNO 1027,1 20 0 0,0
22.04.2017 23:00:00 7,2 2,7 1,0 11,4 10,0 14 8 22 12 N 1026,8 20 0 0,0
22.04.2017 22:00:00 5,0 2,7 2,3 11,5 10,0 14 8 16 9 N 1026,6 19 0 0,0
22.04.2017 21:00:00 5,7 3,2 3,5 11,5 10,0 10 5 18 10 N 1026,0 20 5 0,0
22.04.2017 20:00:00 10,1 4,0 9,4 11,4 10,0 14 8 25 14 N 1025,5 20 23 0,0
22.04.2017 19:00:00 12,9 5,3 13,6 11,4 10,0 15 8 26 14 N 1025,4 20 43 0,0
22.04.2017 18:00:00 11,8 5,0 13,3 11,4 10,0 15 8 22 12 N 1025,7 20 0 0,0
22.04.2017 17:00:00 11,3 6,0 12,7 11,3 10,0 9 5 18 10 NNO 1026,0 20 0 0,0
22.04.2017 16:00:00 10,1 6,2 9,7 11,3 10,0 10 5 23 13 NNO 1026,5 20 0 0,0
22.04.2017 15:00:00 9,2 6,8 9,8 11,1 10,0 19 10 44 24 NO 1026,7 14 0 0,0
22.04.2017 14:00:00 14,0 6,4 13,6 11,0 10,0 19 10 26 14 NNW 1025,9 19 0 0,0
22.04.2017 13:00:00 13,7 5,6 14,6 10,9 10,0 18 10 29 16 NNW 1026,3 19 22 0,0
22.04.2017 12:00:00 13,8 7,6 14,2 10,8 10,0 11 6 19 10 NW 1026,8 14 16 0,0
22.04.2017 11:00:00 12,0 7,1 11,9 10,8 10,0 8 4 15 8 NW 1027,1 10 0 0,0
22.04.2017 10:00:00 11,0 7,7 10,8 10,9 10,0 9 5 15 8 WNW 1027,4 8 0 0,0
22.04.2017 09:00:00 10,6 7,7 9,7 10,9 10,0 8 4 13 7 W 1027,4 9 0 0,0
22.04.2017 08:00:00 9,8 7,4 8,8 11,0 10,0 4 2 8 5 W 1027,3 11 0 0,0
22.04.2017 07:00:00 10,0 6,7 8,1 11,0 10,0 5 3 9 5 WNW 1026,9 14 0 0,0
22.04.2017 06:00:00 9,5 6,9 8,2 11,1 10,0 3 1 8 4 N 1026,8 14 0 0,0
22.04.2017 05:00:00 9,6 7,0 8,6 11,1 10,0 3 2 6 3 WZW 1027,1 14 0 0,0
22.04.2017 04:00:00 11,0 6,9 10,0 11,2 10,0 4 2 12 6 NW 1027,4 17 0 0,0
22.04.2017 03:00:00 11,2 6,9 10,3 11,3 10,1 6 4 12 7 NW 1027,9 16 0 0,0
22.04.2017 02:00:00 11,5 6,8 10,2 11,4 10,1 5 3 12 6 WNW 1028,4 19 0 0,0

tt = temperatuur
td = dauwpunt
tt 5cm = temperatuur 5cm
tt -20cm = temperatuur -20cm
tt -100cm = temperatuur -100cm
ff = windsnelheid
fx = windstoten
dd = windrichting
ppp = luchtdruk
vv = zicht
sd = Zonneschijnduur
rr = neerslag

Weerstations in de omgeving